Regional Weather Roundup
Issued by NWS

Home | Current Version | Previous Version | Graphics & Text | Print | Product List | Glossary On
Versions: 1 2 3 4 5 6 7 8 9 10 11 12 13 14 15 16 17 18 19 20 21 22 23 24 25 26 27 28 29 30 31 32 33 34 35 36 37 38 39 40 41 42 43 44 45 46 47 48 49 50
000
ASUS43 KBIS 162010
RWRND

NORTH DAKOTA REGIONAL WEATHER ROUNDUP
NATIONAL WEATHER SERVICE BISMARCK ND
200 PM CST THU NOV 16 2017

NOTE: "FAIR" INDICATES FEW OR NO CLOUDS BELOW 12,000 FEET WITH NO
SIGNIFICANT WEATHER AND/OR OBSTRUCTIONS TO VISIBILITY.


NDZ001>003-009>011-017-162100-
NORTHWEST NORTH DAKOTA

CITY           SKY/WX    TMP DP  RH WIND       PRES   REMARKS
WILLISTON      CLOUDY    30  19  63 S13G21    29.48F WCI  20
MINOT          CLOUDY    29  21  72 SE20G26   29.58F WCI  16
MINOT AFB      CLOUDY    26  20  78 SE20G26   29.58F WCI  13
$$

NDZ018>021-031>035-040>046-162100-
SOUTHWEST NORTH DAKOTA

CITY           SKY/WX    TMP DP  RH WIND       PRES   REMARKS
BISMARCK       CLOUDY    39  25  57 S17G26    29.64F
DICKINSON      CLOUDY    32  21  64 S15       29.50F
GARRISON         N/A     31  22  69 S21       29.59F WCI  18
HETTINGER ARPT CLOUDY    34  23  64 SE14      29.54F
$$

NDZ004>008-012>016-024-026-027-054-162100-
NORTHEAST NORTH DAKOTA

CITY           SKY/WX    TMP DP  RH WIND       PRES   REMARKS
GRAND FORKS    CLOUDY    29  26  89 SE22G35   29.89F WCI  15
GRND FRKS AFB  CLOUDY    30  25  80 SE22G31   29.87F WCI  17
DEVILS LAKE    CLOUDY    26  22  84 SE23G35   29.74F WCI  11
$$

NDZ022-023-025-028>030-036>039-047>053-162100-
SOUTHEAST NORTH DAKOTA

CITY           SKY/WX    TMP DP  RH WIND       PRES   REMARKS
FARGO          CLOUDY    32  25  75 SE25G37   29.90F WCI  19
JAMESTOWN      CLOUDY    30  23  75 SE22G32   29.73F WCI  17
$$





USA.gov is the U.S. government's official web portal to all federal, state and local government web resources and services.